Location: Drionville
(50.6471°N, 2.0524°E)
Time: 10:57:53
(UTC+00:00)

Daily predictions for brighter satellites

Satellite Brightness Start Highest point End
(mag) Time Altitude Azimuth Time Altitude Azimuth Time Altitude Azimuth
Cosmos 1898 Rocket 4.5 20:09:58 10° SSE 20:14:28 29° E 20:19:00 10° NE
CZ-2C R/B 4.4 20:11:57 10° NNE 20:16:07 34° E 20:20:18 10° SSE
Cosmos 923 Rocket 4.1 20:13:47 10° NNW 20:19:06 81° ENE 20:24:25 10° SSE
USA 245 3.5 20:19:13 10° SE 20:21:16 26° ENE 20:23:32 10° N
ARIANE 5 R/B 3.5 20:19:26 10° SE 20:23:23 36° ENE 20:27:22 10° N
Cosmos 1271 Rocket 2.9 20:19:42 10° S 20:23:37 58° E 20:27:34 10° NNE
Cosmos 2278 Rocket 2.6 20:21:31 10° SW 20:27:10 73° WNW 20:32:52 10° NNE
Cosmos 1461 4.2 20:23:43 10° S 20:27:33 25° ESE 20:31:21 10° ENE
Cosmos 1666 2.9 20:26:30 10° NNW 20:30:14 72° W 20:33:56 10° S
Cosmos 2369 Rocket 3.7 20:27:17 10° SE 20:30:37 16° E 20:33:58 10° ENE
Cosmos 1818 3.7 20:25:34 10° NW 20:31:05 77° NE 20:36:34 10° SE
Meteor 1-10 Rocket 4.3 20:27:15 10° S 20:32:49 71° E 20:38:33 10° NNE
SL-24 R/B - RUBIN 2 4.1 20:27:50 10° NW 20:33:24 75° SW 20:38:14 10° SSE
Landsat 7 3.9 20:29:25 10° SSE 20:34:10 87° WSW 20:38:58 10° NNW
Cosmos 1536 3.1 20:32:11 10° N 20:36:09 52° ENE 20:40:03 10° SSE
ERBS 2.3 20:34:03 10° WNW 20:37:20 67° SW 20:40:21 12° SE
Cosmos 2154 Rocket 4.1 20:37:53 10° N 20:44:12 70° ENE 20:50:26 10° SSE
SPOT 5 3.7 20:39:51 10° SE 20:44:46 46° ENE 20:49:53 10° N
Cosmos 1812 3.8 20:42:28 10° SSW 20:46:13 48° WNW 20:49:59 10° N
OBJECT-B 3.8 20:44:50 10° WSW 20:46:18 12° W 20:47:45 10° WNW
Cosmos 2074 Rocket 4.2 20:40:23 10° NNW 20:46:43 80° W 20:53:01 10° S
Nadezhda 1 Rocket 4.1 20:40:45 10° S 20:46:52 58° E 20:52:55 10° NNE
Cosmos 2184 Rocket 4.1 20:44:04 10° NNW 20:50:17 78° W 20:56:26 10° S
ERS-1 Rocket 3.3 20:49:06 12° SE 20:53:37 52° ENE 20:58:31 10° N
ISS -3.8 20:53:14 10° WSW 20:56:35 68° SSE 20:59:57 10° ENE
Cosmos 2112 Rocket 4.2 20:52:03 10° NNW 20:57:26 78° WSW 21:02:28 12° SSE
Cosmos 1869 Rocket 3.6 20:55:22 10° NNW 20:59:44 81° W 21:04:04 10° S
Cosmos 967 Rocket 4.5 20:55:34 10° SSW 21:01:45 64° ESE 21:07:57 10° NE
JB-3 4.5 21:00:52 10° NNE 21:04:38 51° E 21:08:00 12° S
Spot 2 Rocket 3.5 21:00:39 11° SSE 21:05:29 88° WSW 21:10:34 10° NNW
Cosmos 44 4.3 21:00:24 10° NW 21:05:33 45° WSW 21:10:07 12° S
Cosmos 1937 Rocket 3.6 21:00:39 10° S 21:05:38 53° ESE 21:10:41 10° NNE
Cosmos 1743 2.8 21:04:17 10° N 21:08:08 63° ENE 21:11:02 17° SSE
Cosmos 2228 Rocket 3.2 21:03:54 10° SSW 21:08:22 78° WNW 21:12:54 10° N
RESURS DK-1 3.3 21:06:54 10° NNW 21:10:49 38° NE 21:13:58 15° ESE
SPOT 1/Viking Rocket 4.0 21:06:11 10° S 21:11:19 62° WSW 21:16:28 10° NNW
Cosmos 2084 Rocket 4.4 21:09:07 10° WNW 21:13:06 39° SW 21:16:25 15° S
Resurs 01 Rocket 3.3 21:10:12 10° SSW 21:14:06 30° W 21:18:01 10° NNW
Cosmos 1707 Rocket 3.6 21:14:45 13° S 21:18:33 61° E 21:22:56 10° NNE
Meteor 1-27 Rocket 3.9 21:13:08 10° SSW 21:19:02 83° WNW 21:25:02 10° NNE
CARTOSAT-1 3.7 21:15:33 14° S 21:19:15 74° WSW 21:23:35 10° NNW
Cosmos 2366 rocket 4.5 21:14:57 10° N 21:20:55 47° ENE 21:25:29 17° SE
Cosmos 1680 Rocket 4.4 21:17:04 10° NW 21:22:07 44° WSW 21:26:59 11° S
Cosmos 858 Rocket 4.4 21:19:24 10° SSW 21:24:35 71° ESE 21:29:50 10° NNE
Tianhe-1 3.1 21:26:41 10° SW 21:28:07 15° SSW 21:28:07 15° SSW
Cosmos 1867 4.1 21:23:55 11° S 21:28:38 37° ESE 21:33:38 10° NE
SJ 16-02 3.7 21:25:09 10° WSW 21:28:53 26° NW 21:32:39 10° N
DNEPR-1 R/B 3.9 21:23:50 10° SW 21:29:40 83° SE 21:34:31 10° NE
Cosmos 2181 Rocket 4.3 21:25:49 17° SSE 21:30:18 47° E 21:36:09 10° NNE
Meteor 1-19 Rocket 4.5 21:28:38 18° SSE 21:32:25 48° E 21:37:38 10° NNE
Cosmos 44 Rocket 4.2 21:28:59 10° NW 21:34:05 48° NE 21:38:15 15° ESE
Cosmos 2297 3.8 21:28:38 10° SSW 21:34:20 81° WNW 21:40:03 10° NNE
BREEZE-M R/B 1.9 21:33:08 10° W 21:35:30 53° SSW 21:36:27 32° SE
SL-27 R/B 3.8 21:33:26 10° N 21:36:22 28° ENE 21:38:02 19° ESE
BREEZE M DEB (TANK) 3.1 21:34:40 10° W 21:36:56 18° SW 21:37:17 18° SSW
Cosmos 1544 4.2 21:37:27 10° NNW 21:40:51 38° W 21:43:38 14° SSW
Cosmos 372 Rocket 4.0 21:36:42 14° S 21:40:59 59° ESE 21:46:01 10° NNE
Terra 1.8 21:38:38 20° SSE 21:41:55 87° WSW 21:46:43 10° NNW
Cosmos 1515 3.6 21:39:36 20° S 21:42:08 81° E 21:45:57 10° NNE
Cosmos 1733 Rocket 3.0 21:38:05 10° N 21:42:27 86° W 21:45:11 22° S
Cosmos 2082 Rocket 4.4 21:40:18 10° WNW 21:43:55 18° W 21:47:32 10° SW
Cosmos 1943 Rocket 2.2 21:38:56 10° SSW 21:44:34 87° WNW 21:50:12 10° NNE
Cosmos 1340 Rocket 4.0 21:41:15 10° NNW 21:45:03 38° W 21:48:11 14° SSW
USA 215 4.1 21:41:24 10° ENE 21:47:41 52° N 21:53:58 10° WNW
Cosmos 1656 Rocket 4.1 21:46:52 21° SSE 21:49:57 40° ESE 21:55:06 10° NE
ATLAS 2AS CENTAUR R/B 4.0 21:43:52 10° NW 21:50:03 31° WSW 21:55:13 13° SSW
Cosmos 2341 Rocket 4.2 21:43:50 10° NNW 21:50:15 78° W 21:55:10 18° S
Okean 1 3.2 21:49:16 21° S 21:51:50 86° E 21:55:49 10° N
Cosmos 2218 Rocket 4.0 21:47:19 10° N 21:53:41 79° E 21:58:01 22° SSE
Cosmos 1898 Rocket 4.4 21:51:07 10° SW 21:56:17 51° WNW 22:01:31 10° NNE
Cosmos 494 Rocket 4.3 21:52:39 10° NNW 21:57:46 56° ENE 22:00:49 23° SE
ARIANE 5 R/B 4.1 21:56:25 11° SSW 21:59:54 29° W 22:03:43 10° NW
SL-8 Rocket 4.1 21:56:00 10° NNW 22:02:21 80° W 22:06:45 21° S
H-2A R/B 3.4 21:59:09 10° NNE 22:03:21 89° WNW 22:05:59 22° SSW
Cosmos 1908 Rocket 3.7 21:59:58 10° N 22:04:27 64° ENE 22:06:34 30° SSE
Cosmos 2298 Rocket 4.4 22:02:56 25° SSE 22:05:36 46° ESE 22:10:40 10° NE
Cosmos 1461 3.7 22:01:42 10° SW 22:06:21 61° NW 22:10:55 10° NE
NOSS 2-1 (C) 4.3 22:05:48 10° NW 22:10:18 65° NE 22:14:45 19° ESE
Cosmos 2369 Rocket 2.1 22:08:17 11° SSW 22:13:48 87° ESE 22:19:31 10° NNE
ATLAS CENTAUR R/B 1.1 22:12:29 33° S 22:13:54 58° SE 22:17:41 10° NE
NOSS 2-1 (D) 4.2 22:12:38 10° NW 22:17:12 71° NE 22:21:25 21° SE
Cosmos 1238 Rocket 4.2 22:14:37 10° NNW 22:20:04 48° W 22:23:11 20° SSW
Okean 1-7 3.3 22:21:21 34° SSE 22:22:50 52° E 22:27:02 10° NNE
SPOT 5 4.4 22:19:04 14° SSW 22:22:58 32° W 22:27:46 10° NNW
COSMOS 2487 3.9 22:20:49 10° N 22:23:46 27° ENE 22:24:59 22° E
Cosmos 2344 4.3 22:16:44 10° NW 22:25:41 86° NE 22:35:50 17° SE
Spot 4 4.1 22:24:53 29° SE 22:27:14 61° ENE 22:32:01 10° N
Cosmos 2242 Rocket 3.6 22:27:54 35° S 22:29:43 68° E 22:34:12 10° NNE
Cosmos 1975 3.5 22:27:59 10° NNW 22:31:49 46° W 22:33:30 28° SSW
Cosmos 2150 Rocket 4.0 22:28:55 27° S 22:31:50 70° ESE 22:37:05 10° NNE
ISS -3.6 22:30:04 10° W 22:33:27 72° N 22:36:27 13° E
Cosmos 1125 Rocket 3.6 22:31:08 31° S 22:33:30 58° ESE 22:38:36 10° NNE
Cosmos 1862 Rocket 4.5 22:31:22 17° SW 22:34:26 44° WNW 22:38:36 10° N
Cosmos 1703 Rocket 3.5 22:34:26 36° S 22:36:10 74° E 22:40:36 10° NNE
Cosmos 1782 Rocket 3.5 22:32:49 10° N 22:37:17 76° ENE 22:38:55 38° SSE
Cosmos 1378 3.6 22:38:54 40° SE 22:39:32 45° E 22:43:06 10° NNE
Cosmos 1607 4.1 22:40:05 10° SW 22:46:34 83° NW 22:53:07 10° NE
RESURS DK-1 3.6 22:45:07 10° NW 22:48:45 29° WSW 22:49:50 25° SW
Cosmos 724 4.5 22:46:12 26° SSW 22:49:41 61° ESE 22:55:51 10° NE
Lacrosse 5 2.1 22:48:53 35° S 22:50:26 46° SE 22:55:17 10° ENE
Cosmos 1934 Rocket 4.3 22:46:12 10° N 22:52:12 56° ENE 22:55:20 28° SE
Cosmos 1805 3.8 22:50:55 10° N 22:54:43 48° ENE 22:55:42 38° ESE
Cosmos 1066 Rocket 4.4 22:55:52 33° SSE 22:58:15 58° E 23:03:43 10° NNE
Cosmos 1356 Rocket 3.4 22:56:12 10° NNW 23:00:32 79° W 23:01:50 44° S
Cosmos 2227 Rocket 3.7 22:57:09 10° NNW 23:02:12 32° NE 23:07:13 10° ESE
Cosmos 2297 Rocket 3.3 22:58:51 10° NNW 23:04:10 39° NE 23:08:40 14° ESE
Cosmos 1821 Rocket 4.1 22:58:12 10° NNW 23:04:36 74° W 23:07:52 31° S
Okean 3 3.4 23:06:38 46° S 23:07:50 82° E 23:12:04 10° NNE
Meteor 1-12 Rocket 4.4 23:03:48 10° NNW 23:09:37 70° W 23:12:13 33° S
SL-27 R/B 4.0 23:08:36 10° NW 23:11:20 23° WSW 23:11:32 23° WSW
Cosmos 1867 4.3 23:06:47 10° WSW 23:12:07 53° NW 23:17:30 10° NE
Meteor 2-4 Rocket 4.4 23:10:26 19° SW 23:14:18 48° WNW 23:19:39 10° N
NOSS 2-1 (E) 4.3 23:09:49 10° NW 23:14:41 61° SW 23:17:30 33° SSE
Cosmos 44 Rocket 4.1 23:10:46 10° NW 23:15:35 39° WSW 23:16:57 33° SSW
Cosmos 1766 3.5 23:12:24 10° N 23:16:19 58° ENE 23:17:13 45° SE
Meteor 1-15 Rocket 4.2 23:11:24 10° NNW 23:17:11 87° E 23:19:48 35° SSE
Okean 1 Rocket 4.5 23:13:48 10° N 23:17:38 29° ENE 23:19:30 21° ESE
Terra 4.2 23:18:16 10° WSW 23:20:23 13° W 23:22:32 10° WNW
Cosmos 2221 Rocket 3.8 23:23:40 43° SSE 23:24:56 61° E 23:29:26 10° NNE
COSMOS 2455 2.9 23:19:06 10° NW 23:25:10 80° NE 23:28:40 27° SE
Cosmos 1943 Rocket 4.4 23:24:46 10° W 23:29:07 23° NW 23:33:29 10° NNE
USA 215 3.7 23:23:48 10° E 23:30:15 64° NNE 23:36:43 10° WNW
ALOS 2 2.8 23:29:20 43° SSW 23:30:32 61° WSW 23:34:55 10° NNW
COBE Rocket 4.0 23:31:00 39° S 23:32:56 73° WSW 23:38:09 10° NNW
Cosmos 1535 Rocket 4.5 23:26:40 10° N 23:32:59 86° W 23:36:02 34° S
Cosmos 1300 Rocket 3.6 23:28:47 10° NNW 23:33:10 68° W 23:34:19 46° SSW
Cosmos 1269 Rocket 4.1 23:28:02 10° NNW 23:33:16 62° WSW 23:35:08 38° S
USA 81 4.3 23:29:01 10° N 23:34:18 63° E 23:36:30 34° SSE
Cosmos 1470 3.9 23:31:41 10° N 23:35:20 35° ENE 23:36:35 28° ESE
Cosmos 2251 Rocket 4.1 23:34:40 10° NNW 23:39:47 51° ENE 23:42:53 23° SE
EO 1 Del DPAF 4.4 23:42:15 10° NE 23:45:32 29° E 23:45:57 28° ESE
Cosmos 1733 3.4 23:42:39 10° NNW 23:46:23 54° W 23:46:57 49° SW
Cosmos 1842 3.5 23:46:42 46° SE 23:47:20 52° E 23:51:08 10° NNE
Meteor 1-23 Rocket 4.3 23:46:20 34° SSW 23:49:02 81° WNW 23:54:54 10° N
Thor Agena Rocket 3.6 23:45:27 10° NNE 23:50:44 72° ESE 23:52:46 38° S
ATLAS CENTAUR R/B 3.4 23:49:57 10° W 23:53:05 25° NNW 23:56:21 10° NNE
